Terug naar catalogus

TIANQI 35

ActiefCommunicatieLEO
NORAD 62367·PAYLOAD·🇨🇳 China

Gelanceerd Dec 19, 2024 vanaf Yellow Sea Launch Area

Loading…

Volgende Passages (komende 24 uur)

TLE

VersSource: Space-Track

Epoch: Sep 14, 2026, 12:37 UTC

1 62367U 24245C   26257.52571388 -.00000017  00000-0  76875-4 0  9998
2 62367  44.9846 284.2135 0008103  59.0761 301.0868 13.99219150 88851

Volg TIANQI 35 in realtime met AllMySat

Download on the App Store